Prince Rupert,

7:19 PM PDT on October 17, 2017 (GMT -0700)
Prince Rupert

Weather History for CYPR - September, 2012

Change the Weather History Date:

Sunday, September 30, 2012

  Actual Average Record
Temperature  
Mean Temperature 52 °F -  
Max Temperature 55 °F 53 °F 69 °F (2008)
Min Temperature 48 °F 43 °F 32 °F (1996)
Degree Days  
Heating Degree Days 14    
Growing Degree Days 2 (Base 50)    
Moisture  
Dew Point 50 °F    
Average Humidity 93    
Maximum Humidity 100    
Minimum Humidity 79    
Precipitation  
Precipitation 0.43 in - - ()
Sea Level Pressure  
Sea Level Pressure 30.09 in    
Wind  
Wind Speed 8 mph ()    
Max Wind Speed 21 mph    
Max Gust Speed 31 mph    
Visibility 6.0 miles    
Events Rain    
Averages and records for this station are not official NWS values.
T = Trace of Precipitation, MM = Missing Value Source: Averaged Metar Reports

Daily Weather History Graph

Daily Weather History Graph

Search for Another Location

Airport or City:

Trip Planner

Search our weather history database for the weather conditions in past years. The results will help you decide how hot, cold, wet, or windy it might be!

Date:

Astronomy

Sep. 30, 2012 Rise Set
Actual Time 7:43 AM PDT 7:18 PM PDT
Civil Twilight 7:07 AM PDT 7:54 PM PDT
Nautical Twilight 6:26 AM PDT 8:35 PM PDT
Astronomical Twilight 5:43 AM PDT 9:18 PM PDT
Moon 7:08 PM PDT (9/30) 8:35 AM PDT (9/30)
Length of Visible Light 12h 46m
Length of Day
11h 35m
Full, 100% of the Moon is Illuminated
Sep 30
Full
Oct 8
Last Quarter
Oct 15
New
Oct 21
First Quarter
Oct 29
Full

Hourly Weather History & Observations

Time (PDT) Temp. Dew Point Humidity Pressure Visibility Wind Dir Wind Speed Gust Speed Precip Events Conditions
12:00 AM 50.0 °F 46.4 °F 87% 30.22 in 9.0 mi SE 9.2 mph - N/A Rain Light Rain
12:40 AM 50.0 °F 46.4 °F 87% 30.22 in 9.0 mi SE 8.1 mph - N/A   Overcast
12:50 AM 50.0 °F 46.4 °F 87% 30.22 in 9.0 mi ESE 9.2 mph - N/A Rain Light Rain
1:00 AM 50.0 °F 46.4 °F 87% 30.22 in 9.0 mi ESE 8.1 mph - N/A Rain Light Rain
1:03 AM 50.0 °F 46.4 °F 87% 30.22 in 9.0 mi ESE 8.1 mph - N/A   Overcast
2:00 AM 50.0 °F 46.4 °F 87% 30.22 in 9.0 mi SE 8.1 mph - N/A   Overcast
3:00 AM 50.0 °F 46.4 °F 87% 30.22 in 9.0 mi ESE 9.2 mph - N/A   Overcast
4:00 AM 50.0 °F 46.4 °F 87% 30.22 in 9.0 mi SE 8.1 mph - N/A   Overcast
5:00 AM 51 °F 46 °F 79% 30.22 in 10 mi ESE 6.9 mph - -   Overcast
5:00 AM 50.0 °F 46.4 °F 87% 30.21 in 9.0 mi ESE 6.9 mph - N/A   Overcast
6:00 AM 50.0 °F 46.4 °F 87% 30.21 in 9.0 mi SE 6.9 mph - N/A   Overcast
6:05 AM 50.0 °F 46.4 °F 87% 30.21 in 6.0 mi SE 5.8 mph - N/A Rain Light Rain
6:08 AM 50.0 °F 46.4 °F 87% 30.21 in 5.0 mi SE 5.8 mph - N/A Rain Light Rain
6:11 AM 50.0 °F 46.4 °F 87% 30.21 in 6.0 mi SE 4.6 mph - N/A Rain Light Rain
6:46 AM 50.0 °F 46.4 °F 87% 30.20 in 9.0 mi East 4.6 mph - N/A   Overcast
7:00 AM 50.0 °F 48.2 °F 94% 30.19 in 8.0 mi SE 3.5 mph - N/A   Overcast
7:49 AM 48.2 °F 46.4 °F 93% 30.19 in 9.0 mi Variable 2.3 mph - N/A Rain Light Rain
8:00 AM 48.2 °F 46.4 °F 93% 30.19 in 9.0 mi East 3.5 mph - N/A Rain Light Rain
8:20 AM 50.0 °F 48.2 °F 94% 30.18 in 9.0 mi ENE 5.8 mph - N/A   Overcast
9:00 AM 50.0 °F 48.2 °F 94% 30.17 in 9.0 mi East 5.8 mph - N/A   Overcast
10:00 AM 51.8 °F 50.0 °F 94% 30.17 in 9.0 mi Calm Calm - N/A   Overcast
10:18 AM 51.8 °F 50.0 °F 94% 30.17 in 9.0 mi Calm Calm - N/A Rain Light Rain
10:36 AM 51.8 °F 50.0 °F 94% 30.17 in 5.0 mi Calm Calm - N/A Rain Light Rain
10:47 AM 51.8 °F 50.0 °F 94% 30.17 in 6.0 mi ENE 3.5 mph - N/A Rain Light Rain
10:58 AM 51.8 °F 50.0 °F 94% 30.17 in 9.0 mi NE 3.5 mph - N/A Rain Light Rain
11:00 AM 52 °F 50 °F 91% 30.17 in 10 mi NE 3.5 mph - - Rain Light Rain
11:00 AM 51.8 °F 50.0 °F 94% 30.17 in 9.0 mi NE 3.5 mph - N/A Rain Light Rain
11:12 AM 51.8 °F 50.0 °F 94% 30.17 in 5.0 mi NNE 3.5 mph - N/A Rain Light Rain
11:47 AM 51.8 °F 50.0 °F 94% 30.17 in 3.0 mi East 4.6 mph - N/A Rain Rain
11:55 AM 51.8 °F 50.0 °F 94% 30.17 in 2.2 mi ESE 3.5 mph - N/A Rain Rain
11:56 AM 51.8 °F 50.0 °F 94% 30.17 in 2.2 mi ESE 3.5 mph - N/A Rain Rain
11:59 AM 51.8 °F 50.0 °F 94% 30.17 in 2.0 mi ESE 3.5 mph - N/A Rain Rain
12:00 PM 51.8 °F 50.0 °F 94% 30.17 in 2.0 mi ESE 3.5 mph - N/A Rain Rain
12:23 PM 51.8 °F 50.0 °F 94% 30.16 in 2.0 mi East 4.6 mph - N/A Rain Rain
12:53 PM 51.8 °F 50.0 °F 94% 30.15 in 2.2 mi East 4.6 mph - N/A Rain Light Rain
12:54 PM 51.8 °F 50.0 °F 94% 30.15 in 2.2 mi East 4.6 mph - N/A Rain Light Rain
12:58 PM 51.8 °F 50.0 °F 94% 30.14 in 3.0 mi East 4.6 mph - N/A Rain Light Rain
1:00 PM 51.8 °F 50.0 °F 94% 30.14 in 3.0 mi East 5.8 mph - N/A Rain Rain
1:09 PM 51.8 °F 51.8 °F 100% 30.14 in 2.2 mi East 4.6 mph - N/A Rain Rain
1:19 PM 51.8 °F 51.8 °F 100% 30.14 in 3.0 mi East 4.6 mph - N/A Rain Light Rain
1:27 PM 51.8 °F 51.8 °F 100% 30.13 in 7.0 mi East 5.8 mph - N/A Rain Light Rain
1:37 PM 53.6 °F 51.8 °F 94% 30.12 in 8.0 mi ESE 10.4 mph - N/A Rain Light Rain
1:46 PM 53.6 °F 51.8 °F 94% 30.12 in 5.0 mi ESE 11.5 mph - N/A Rain Light Rain
1:56 PM 53.6 °F 51.8 °F 94% 30.12 in 6.0 mi SE 12.7 mph - N/A Rain Light Rain
2:00 PM 53.6 °F 51.8 °F 94% 30.11 in 6.0 mi SE 12.7 mph - N/A Rain Light Rain
2:20 PM 53.6 °F 51.8 °F 94% 30.09 in 5.0 mi SE 13.8 mph - N/A Rain Light Rain
2:26 PM 53.6 °F 51.8 °F 94% 30.09 in 6.0 mi SE 13.8 mph - N/A Rain Light Rain
3:00 PM 53.6 °F 51.8 °F 94% 30.06 in 6.0 mi ESE 8.1 mph - N/A Rain Light Rain
3:21 PM 53.6 °F 51.8 °F 94% 30.05 in 5.0 mi ESE 9.2 mph 17.3 mph N/A Rain Light Rain
3:33 PM 53.6 °F 51.8 °F 94% 30.04 in 6.0 mi ESE 10.4 mph - N/A Rain Light Rain
3:55 PM 53.6 °F 51.8 °F 94% 30.03 in 5.0 mi ESE 9.2 mph - N/A Rain Light Rain
4:00 PM 53.6 °F 51.8 °F 94% 30.03 in 3.0 mi SE 6.9 mph - N/A Rain Rain
5:00 PM 53 °F 52 °F 94% 29.99 in 3 mi SE 15.0 mph - - Rain Rain
5:00 PM 53.6 °F 51.8 °F 94% 29.99 in 3.0 mi SE 15.0 mph 21.9 mph N/A Rain Rain
6:00 PM 53.6 °F 51.8 °F 94% 29.96 in 3.0 mi SE 13.8 mph 25.3 mph N/A Rain Rain
6:12 PM 53.6 °F 51.8 °F 94% 29.96 in 5.0 mi SSE 11.5 mph 20.7 mph N/A Rain Light Rain
6:29 PM 53.6 °F 51.8 °F 94% 29.96 in 2.5 mi SSE 13.8 mph 23.0 mph N/A Rain Light Rain
7:00 PM 53.6 °F 51.8 °F 94% 29.96 in 2.2 mi SSE 20.7 mph 28.8 mph N/A Rain Light Rain
7:07 PM 53.6 °F 51.8 °F 94% 29.96 in 3.0 mi SSE 19.6 mph 31.1 mph N/A Rain Light Rain
7:30 PM 53.6 °F 51.8 °F 94% 29.96 in 6.0 mi SSE 18.4 mph 28.8 mph N/A Rain Light Rain
7:48 PM 53.6 °F 51.8 °F 94% 29.96 in 9.0 mi SSE 18.4 mph 29.9 mph N/A   Overcast
8:00 PM 53.6 °F 51.8 °F 94% 29.96 in 9.0 mi SSE 17.3 mph 29.9 mph N/A   Overcast
9:00 PM 53.6 °F 53.6 °F 100% 29.94 in 9.0 mi SSE 12.7 mph 19.6 mph N/A   Overcast
9:34 PM 55.4 °F 53.6 °F 94% 29.94 in 9.0 mi SSE 19.6 mph 27.6 mph N/A Rain Light Rain
9:42 PM 55.4 °F 53.6 °F 94% 29.93 in 5.0 mi SSE 18.4 mph 27.6 mph N/A Rain Light Rain
10:00 PM 53.6 °F 53.6 °F 100% 29.92 in 5.0 mi SSE 16.1 mph 24.2 mph N/A Rain Light Rain
10:02 PM 53.6 °F 53.6 °F 100% 29.92 in 6.0 mi SSE 17.3 mph 25.3 mph N/A Rain Light Rain
10:45 PM 53.6 °F 51.8 °F 94% 29.93 in 5.0 mi SSE 11.5 mph 20.7 mph N/A Rain Rain
11:00 PM 54 °F 53 °F 94% 29.90 in 4 mi SSE 16.1 mph - - Rain Light Rain
11:00 PM 53.6 °F 53.6 °F 100% 29.90 in 4.0 mi SE 16.1 mph 26.5 mph N/A Rain Light Rain
11:03 PM 53.6 °F 53.6 °F 100% 29.90 in 6.0 mi SSE 13.8 mph 26.5 mph N/A Rain Light Rain
11:32 PM 53.6 °F 53.6 °F 100% 29.86 in 5.0 mi SE 15.0 mph 23.0 mph N/A Rain Light Rain
11:42 PM 53.6 °F 53.6 °F 100% 29.85 in 6.0 mi SSE 15.0 mph 21.9 mph N/A Rain Light Rain
11:55 PM 55.4 °F 53.6 °F 94% 29.84 in 5.0 mi SSE 11.5 mph 20.7 mph N/A Rain Rain